Volver al catálogo

CZ-6A DEB

ActivoPO
NORAD 55535·DEBRIS·🇨🇳 China

Lanzado Nov 11, 2022 desde Taiyuan Satellite Launch Center

Loading…

Próximos Pases (próximas 24 horas)

TLE

ActualizadoSource: Space-Track

Época: Sep 13, 2026, 03:34 UTC

1 55535U 22151YH  26256.14889274  .00006830  00000-0  97726-3 0  9999
2 55535  98.6279 331.4684 0068282 356.5553   3.5175 14.75370382198158

Sigue CZ-6A DEB en tiempo real con AllMySat

Download on the App Store